EW9116 Weather Reports


time (UTC)temp
C
wind
direction
speed
KPH
gust
KPH
rain 1hr
cm
rain 24hr
cm
rain mn
cm
humidity
%
barometer
mb
20260504081436 13 0 0.0 0.0 0.00 0.00 0.00 43 994.1
20260504081250 13 0 0.0 0.0 0.00 0.00 0.00 43 994.2
20260504070403 13 0 0.0 0.0 0.00 0.00 0.00 46 995.9
20260504050326 13 0 0.0 0.0 0.00 0.00 0.00 48 998.2
20260504045826 13 0 0.0 0.0 0.00 0.00 0.00 48 998.3
20260504045325 12 0 0.0 0.0 0.00 0.00 0.00 48 998.3
20260504044825 12 0 0.0 0.0 0.00 0.00 0.00 49 998.5
20260504044325 12 0 0.0 0.0 0.00 0.00 0.00 50 998.6
20260504044104 12 0 0.0 0.0 0.00 0.00 0.00 50 998.6
20260504043321 12 0 0.0 0.0 0.00 0.00 0.00 51 998.9
20260504042814 12 0 0.0 0.0 0.00 0.00 0.00 51 998.9
20260504042314 12 0 0.0 0.0 0.00 0.00 0.00 50 999.1
20260504041811 12 0 0.0 0.0 0.00 0.00 0.00 51 999.2
20260504041310 12 0 0.0 0.0 0.00 0.00 0.00 51 999.3
20260504041052 12 0 0.0 0.0 0.00 0.00 0.00 51 999.5
20260504040308 12 0 0.0 0.0 0.00 0.00 0.00 51 999.6
20260504040055 12 0 0.0 0.0 0.00 0.00 0.00 51 999.8
20260504035556 12 0 0.0 0.0 0.00 0.00 0.00 52 999.9
20260504034806 12 0 0.0 0.0 0.00 0.00 0.00 51 1000.0
20260504034303 12 0 0.0 0.0 0.00 0.00 0.00 52 1000.2
20260504033802 12 0 0.0 0.0 0.00 0.00 0.00 52 1000.3
20260504033304 12 0 0.0 0.0 0.00 0.00 0.00 52 1000.3
20260504032803 12 0 0.0 0.0 0.00 0.00 0.00 52 1000.7
20260504032300 12 0 0.0 0.0 0.00 0.00 0.00 53 1000.8
20260504032047 11 0 0.0 0.0 0.00 0.00 0.00 54 1000.8
20260504031256 11 0 0.0 0.0 0.00 0.00 0.00 55 1001.0
20260504030755 11 0 0.0 0.0 0.00 0.00 0.00 55 1001.1
20260504030255 11 0 0.0 0.0 0.00 0.00 0.00 56 1001.3
20260504025756 11 0 0.0 0.0 0.00 0.00 0.00 54 1001.3
20260504025253 11 0 0.0 0.0 0.00 0.00 0.00 55 1001.5
20260504024754 11 0 0.0 0.0 0.00 0.00 0.00 56 1001.5
20260504024542 11 0 0.0 0.0 0.00 0.00 0.00 55 1001.6
20260504024048 11 0 0.0 0.0 0.00 0.00 0.00 54 1001.6
20260504023253 11 0 0.0 0.0 0.00 0.00 0.00 54 1001.7
20260504022751 11 0 0.0 0.0 0.00 0.00 0.00 52 1001.8
20260504022253 12 0 0.0 0.0 0.00 0.00 0.00 53 1001.8
20260504021752 12 0 0.0 0.0 0.00 0.00 0.00 52 1001.9
20260504021252 12 0 0.0 0.0 0.00 0.00 0.00 52 1001.9
20260504020752 12 0 0.0 0.0 0.00 0.00 0.00 51 1002.0
20260504020251 12 0 0.0 0.0 0.00 0.00 0.00 50 1002.1
20260504015752 13 0 0.0 0.0 0.00 0.00 0.00 51 1002.1
20260504015247 13 0 0.0 0.0 0.00 0.00 0.00 51 1002.0
20260504014816 14 0 0.0 0.0 0.00 0.00 0.00 51 1002.0
20260504013748 15 0 0.0 0.0 0.00 0.00 0.00 46 1002.2
20260504013248 15 0 0.0 0.0 0.00 0.00 0.00 41 1002.3
20260504012746 16 0 0.0 0.0 0.00 0.00 0.00 42 1002.4
20260504012246 16 0 0.0 0.0 0.00 0.00 0.00 40 1002.4
20260504011746 16 0 0.0 0.0 0.00 0.00 0.00 37 1002.3
20260504011246 16 0 0.0 0.0 0.00 0.00 0.00 36 1002.4
20260504011036 17 0 0.0 0.0 0.00 0.00 0.00 36 1002.4
20260504010246 17 0 0.0 0.0 0.00 0.00 0.00 36 1002.5
20260504005745 17 0 0.0 0.0 0.00 0.00 0.00 36 1002.5
20260504005246 17 0 0.0 0.0 0.00 0.00 0.00 35 1002.5
20260504004744 18 0 0.0 0.0 0.00 0.00 0.00 34 1002.5
20260504004244 18 0 0.0 0.0 0.00 0.00 0.00 34 1002.6
20260504003744 18 0 0.0 0.0 0.00 0.00 0.00 34 1002.6
20260504003243 18 0 0.0 0.0 0.00 0.00 0.00 31 1002.6
20260504002742 18 0 0.0 0.0 0.00 0.00 0.00 33 1002.6
20260504002240 18 0 0.0 0.0 0.00 0.00 0.00 32 1002.7
20260504001738 18 0 0.0 0.0 0.00 0.00 0.00 33 1002.8
20260504001239 18 0 0.0 0.0 0.00 0.00 0.00 32 1002.8
20260504001031 19 0 0.0 0.0 0.00 0.00 0.00 31 1002.8
20260504000234 19 0 0.0 0.0 0.00 0.00 0.00 32 1003.0
20260503235730 19 0 0.0 0.0 0.00 0.00 0.00 31 1002.9
20260503235229 19 0 0.0 0.0 0.00 0.00 0.00 31 1002.9
20260503234730 19 0 0.0 0.0 0.00 0.00 0.00 32 1002.9
20260503234230 19 0 0.0 0.0 0.00 0.00 0.00 30 1003.0
20260503234021 19 0 0.0 0.0 0.00 0.00 0.00 28 1003.1
20260503233230 19 0 0.0 0.0 0.00 0.00 0.00 29 1003.1
20260503232731 19 0 0.0 0.0 0.00 0.00 0.00 33 1003.2
20260503232230 19 0 0.0 0.0 0.00 0.00 0.00 34 1003.3
20260503232023 18 0 0.0 0.0 0.00 0.00 0.00 34 1003.2
20260503231233 18 0 0.0 0.0 0.00 0.00 0.00 31 1003.2
20260503230728 19 0 0.0 0.0 0.00 0.00 0.00 31 1003.3
20260503230228 19 0 0.0 0.0 0.00 0.00 0.00 30 1003.2
20260503225730 19 0 0.0 0.0 0.00 0.00 0.00 29 1003.2
20260503225228 20 0 0.0 0.0 0.00 0.00 0.00 32 1003.2
20260503225022 20 0 0.0 0.0 0.00 0.00 0.00 30 1003.3
20260503224228 19 0 0.0 0.0 0.00 0.00 0.00 29 1003.3
20260503223726 20 0 0.0 0.0 0.00 0.00 0.00 28 1003.3
20260503223520 20 0 0.0 0.0 0.00 0.00 0.00 29 1003.3
20260503222722 20 0 0.0 0.0 0.00 0.00 0.00 30 1003.4
20260503222221 20 0 0.0 0.0 0.00 0.00 0.00 30 1003.4
20260503221720 20 0 0.0 0.0 0.00 0.00 0.00 29 1003.4
20260503221217 20 0 0.0 0.0 0.00 0.00 0.00 31 1003.4
20260503220716 20 0 0.0 0.0 0.00 0.00 0.00 31 1003.5
20260503220213 20 0 0.0 0.0 0.00 0.00 0.00 30 1003.7
20260503215711 20 0 0.0 0.0 0.00 0.00 0.00 31 1003.8
20260503215204 20 0 0.0 0.0 0.00 0.00 0.00 31 1003.8
20260503214701 20 0 0.0 0.0 0.00 0.00 0.00 30 1003.8
20260503214203 20 0 0.0 0.0 0.00 0.00 0.00 29 1003.8
20260503213703 20 0 0.0 0.0 0.00 0.00 0.00 29 1003.9
20260503213201 20 0 0.0 0.0 0.00 0.00 0.00 30 1004.0
20260503213027 19 0 0.0 0.0 0.00 0.00 0.00 31 1003.9
20260503211702 19 0 0.0 0.0 0.00 0.00 0.00 31 1004.2
20260503211202 20 0 0.0 0.0 0.00 0.00 0.00 30 1004.1
20260503210702 19 0 0.0 0.0 0.00 0.00 0.00 27 1004.1
20260503210205 19 0 0.0 0.0 0.00 0.00 0.00 27 1004.2
20260503205701 19 0 0.0 0.0 0.00 0.00 0.00 27 1004.2
20260503205209 19 0 0.0 0.0 0.00 0.00 0.00 28 1004.2
20260503204706 19 0 0.0 0.0 0.00 0.00 0.00 31 1004.4
20260503204447 19 0 0.0 0.0 0.00 0.00 0.00 29 1004.4
20260503203700 19 0 0.0 0.0 0.00 0.00 0.00 28 1004.5
20260503203157 19 0 0.0 0.0 0.00 0.00 0.00 33 1004.6
20260503202657 19 0 0.0 0.0 0.00 0.00 0.00 30 1004.6
20260503202157 19 0 0.0 0.0 0.00 0.00 0.00 30 1004.7
20260503201948 18 0 0.0 0.0 0.00 0.00 0.00 30 1004.7
20260503201158 18 0 0.0 0.0 0.00 0.00 0.00 29 1004.8
20260503200654 18 0 0.0 0.0 0.00 0.00 0.00 35 1005.0
20260503200154 18 0 0.0 0.0 0.00 0.00 0.00 33 1005.1
20260503195652 18 0 0.0 0.0 0.00 0.00 0.00 29 1005.1
20260503195150 18 0 0.0 0.0 0.00 0.00 0.00 32 1005.2
20260503194648 18 0 0.0 0.0 0.00 0.00 0.00 30 1005.2
20260503194438 18 0 0.0 0.0 0.00 0.00 0.00 34 1005.2
20260503193644 18 0 0.0 0.0 0.00 0.00 0.00 33 1005.3
20260503193433 18 0 0.0 0.0 0.00 0.00 0.00 29 1005.3
20260503192643 18 0 0.0 0.0 0.00 0.00 0.00 32 1005.3
20260503192141 18 0 0.0 0.0 0.00 0.00 0.00 31 1005.4
20260503191638 18 0 0.0 0.0 0.00 0.00 0.00 33 1005.4
20260503191138 18 0 0.0 0.0 0.00 0.00 0.00 32 1005.4
20260503190635 18 0 0.0 0.0 0.00 0.00 0.00 36 1005.5
20260503190132 18 0 0.0 0.0 0.00 0.00 0.00 33 1005.5
20260503185632 17 0 0.0 0.0 0.00 0.00 0.00 36 1005.7
20260503185416 17 0 0.0 0.0 0.00 0.00 0.00 31 1005.7
20260503184630 18 0 0.0 0.0 0.00 0.00 0.00 29 1005.8
20260503184130 17 0 0.0 0.0 0.00 0.00 0.00 31 1005.9
20260503183918 17 0 0.0 0.0 0.00 0.00 0.00 32 1006.0
20260503183130 17 0 0.0 0.0 0.00 0.00 0.00 31 1006.0
20260503182916 17 0 0.0 0.0 0.00 0.00 0.00 33 1006.1
20260503182130 17 0 0.0 0.0 0.00 0.00 0.00 31 1006.0
20260503181631 17 0 0.0 0.0 0.00 0.00 0.00 29 1006.0
20260503181130 17 0 0.0 0.0 0.00 0.00 0.00 30 1006.1
20260503180629 17 0 0.0 0.0 0.00 0.00 0.00 32 1006.1
20260503180129 17 0 0.0 0.0 0.00 0.00 0.00 31 1006.1
20260503175625 17 0 0.0 0.0 0.00 0.00 0.00 30 1006.1
20260503175125 17 0 0.0 0.0 0.00 0.00 0.00 28 1006.2
20260503174624 17 0 0.0 0.0 0.00 0.00 0.00 33 1006.1
20260503174125 17 0 0.0 0.0 0.00 0.00 0.00 30 1006.3
20260503173625 17 0 0.0 0.0 0.00 0.00 0.00 29 1006.4
20260503173124 17 0 0.0 0.0 0.00 0.00 0.00 27 1006.4
20260503172623 17 0 0.0 0.0 0.00 0.00 0.00 30 1006.5
20260503172122 17 0 0.0 0.0 0.00 0.00 0.00 32 1006.5
20260503171622 17 0 0.0 0.0 0.00 0.00 0.00 36 1006.5
20260503171123 16 0 0.0 0.0 0.00 0.00 0.00 39 1006.5
20260503170622 16 0 0.0 0.0 0.00 0.00 0.00 37 1006.5
20260503170121 16 0 0.0 0.0 0.00 0.00 0.00 35 1006.5
20260503160114 16 0 0.0 0.0 0.00 0.00 0.00 43 1006.2
20260503150550 16 0 0.0 0.0 0.00 0.00 0.00 50 1006.0
20260503131013 12 0 0.0 0.0 0.00 0.00 0.00 61 1005.4
20260503130511 12 0 0.0 0.0 0.00 0.00 0.00 62 1005.4
20260503110456 2 0 0.0 0.0 0.00 0.00 0.00 88 1003.8
20260503090423 6 0 0.0 0.0 0.00 0.00 0.00 77 1003.9